Istanbul, Turkey

7:07 AM +03 on May 30, 2017 (GMT +0300)
Ataturk

Weather History for LTBA - January, 2014

Change the Weather History Date:

Friday, January 10, 2014

  Actual Average Record
Temperature  
Mean Temperature 46 °F -  
Max Temperature 51 °F 46 °F 60 °F (2003)
Min Temperature 42 °F 37 °F 19 °F (2013)
Degree Days  
Heating Degree Days 18    
Moisture  
Dew Point 41 °F    
Average Humidity 78    
Maximum Humidity 93    
Minimum Humidity 56    
Precipitation  
Precipitation 0.00 in - - ()
Sea Level Pressure  
Sea Level Pressure 30.10 in    
Wind  
Wind Speed 6 mph ()    
Max Wind Speed 15 mph    
Max Gust Speed 26 mph    
Visibility 4.3 miles    
Events      
Averages and records for this station are not official NWS values.
T = Trace of Precipitation, MM = Missing Value Source: Averaged Metar Reports

Daily Weather History Graph

Daily Weather History Graph

Search for Another Location

Airport or City:

Trip Planner

Search our weather history database for the weather conditions in past years. The results will help you decide how hot, cold, wet, or windy it might be!

Date:

Astronomy

Jan. 10, 2014 Rise Set
Actual Time 7:29 AM EET 4:55 PM EET
Civil Twilight 6:58 AM EET 5:26 PM EET
Nautical Twilight 6:24 AM EET 6:00 PM EET
Astronomical Twilight 5:51 AM EET 6:33 PM EET
Moon 12:47 PM EET (1/10) 2:16 AM EET (1/10)
Length of Visible Light 10h 27m
Length of Day
9h 26m
Waxing Gibbous, 72% of the Moon is Illuminated
Jan 10
Waxing Gibbous
Jan 16
Full
Jan 24
Last Quarter
Jan 30
New
Feb 6
First Quarter

Hourly Weather History & Observations

Time (EET) Temp. Windchill Dew Point Humidity Pressure Visibility Wind Dir Wind Speed Gust Speed Precip Events Conditions
1:20 AM 44.6 °F 42.2 °F 42.8 °F 93% 30.15 in 2.5 mi South 4.6 mph - N/A   Mostly Cloudy
1:50 AM 44.6 °F - 42.8 °F 93% 30.15 in 2.8 mi Variable 2.3 mph - N/A   Mostly Cloudy
2:20 AM 42.8 °F 40.1 °F 41.0 °F 93% 30.15 in 2.8 mi South 4.6 mph - N/A   Mostly Cloudy
2:50 AM 42.8 °F 40.1 °F 41.0 °F 93% 30.15 in 2.8 mi South 4.6 mph - N/A   Mostly Cloudy
3:20 AM 42.8 °F 41.1 °F 41.0 °F 93% 30.15 in 2.8 mi SSW 3.5 mph - N/A   Mostly Cloudy
3:50 AM 44.6 °F - 42.8 °F 93% 30.12 in 2.8 mi Variable 2.3 mph - N/A   Mostly Cloudy
4:20 AM 44.6 °F - 41.0 °F 87% 30.12 in 2.8 mi Variable 2.3 mph - N/A   Mostly Cloudy
4:50 AM 42.8 °F 40.1 °F 39.2 °F 87% 30.12 in 2.8 mi SW 4.6 mph - N/A   Mostly Cloudy
5:00 AM 44 °F - 40 °F 81% 30.14 in 3 mi SW 4.6 mph - -   Mist
5:20 AM 44.6 °F 40.7 °F 39.2 °F 81% 30.12 in 2.8 mi SW 6.9 mph - N/A   Mist
5:50 AM 42.8 °F 38.6 °F 39.2 °F 87% 30.12 in 5.0 mi SW 6.9 mph - N/A   Unknown
6:20 AM 44.6 °F 43.1 °F 39.2 °F 81% 30.12 in 4.3 mi SW 3.5 mph - N/A   Unknown
6:50 AM 42.8 °F 40.1 °F 39.2 °F 87% 30.12 in 4.3 mi SSW 4.6 mph - N/A   Unknown
7:20 AM 44.6 °F 41.4 °F 41.0 °F 87% 30.12 in 3.7 mi SW 5.8 mph - N/A   Unknown
7:50 AM 44.6 °F 40.2 °F 41.0 °F 87% 30.12 in 4.3 mi SSW 8.1 mph - N/A   Partly Cloudy
8:00 AM 45 °F - 42 °F 86% 30.13 in 4 mi SSW 8.1 mph - -   Scattered Clouds
8:20 AM 44.6 °F 40.2 °F 39.2 °F 81% 30.09 in - SW 8.1 mph - N/A   Clear
8:50 AM 46.4 °F 43.5 °F 41.0 °F 81% 30.12 in - SW 5.8 mph - N/A   Clear
9:20 AM 46.4 °F 42.9 °F 41.0 °F 81% 30.12 in - SW 6.9 mph - N/A   Clear
9:50 AM 46.4 °F 41.5 °F 39.2 °F 76% 30.12 in - SW 10.4 mph - N/A   Clear
10:20 AM 48.2 °F - 39.2 °F 71% 30.12 in - SW 10.4 mph - N/A   Clear
10:50 AM 48.2 °F - 41.0 °F 76% 30.12 in - SW 12.7 mph - N/A   Clear
11:00 AM 49 °F - 41 °F 66% 30.13 in 6 mi SW 12.7 mph - -  
11:20 AM 50.0 °F - 39.2 °F 66% 30.09 in - SSW 11.5 mph - N/A   Clear
11:50 AM 50.0 °F - 39.2 °F 66% 30.09 in - SSW 10.4 mph - N/A   Clear
12:20 PM 50.0 °F - 37.4 °F 62% 30.06 in - SSW 10.4 mph 26.5 mph N/A   Clear
12:50 PM 50.0 °F - 37.4 °F 62% 30.06 in - SSW 15.0 mph - N/A   Clear
1:20 PM 50.0 °F - 39.2 °F 66% 30.04 in - SSW 8.1 mph - N/A   Clear
1:50 PM 50.0 °F - 39.2 °F 66% 30.06 in - SW 5.8 mph - N/A   Clear
2:00 PM 51 °F - 40 °F 56% 30.07 in 12 mi SW 5.8 mph - -  
2:20 PM 51.8 °F - 39.2 °F 62% 30.04 in - SW 12.7 mph - N/A   Clear
2:50 PM 50.0 °F - 41.0 °F 71% 30.04 in - SW 12.7 mph - N/A   Clear
3:20 PM 50.0 °F - 41.0 °F 71% 30.04 in - SW 9.2 mph - N/A   Clear
3:50 PM 50.0 °F - 39.2 °F 66% 30.04 in - SW 10.4 mph - N/A   Clear
4:20 PM 50.0 °F - 39.2 °F 66% 30.04 in - SW 10.4 mph - N/A   Clear
4:50 PM 50.0 °F - 39.2 °F 66% 30.04 in - SW 11.5 mph - N/A   Clear
5:00 PM 49 °F - 40 °F 62% 30.04 in 12 mi SW 11.5 mph - -  
5:20 PM 50.0 °F - 41.0 °F 71% 30.04 in - SW 10.4 mph - N/A   Clear
5:50 PM 50.0 °F - 41.0 °F 71% 30.01 in - SSW 10.4 mph - N/A   Clear
6:20 PM 50.0 °F - 41.0 °F 71% 30.04 in - SW 10.4 mph - N/A   Clear
6:50 PM 50.0 °F - 41.0 °F 71% 30.04 in - SW 10.4 mph - N/A   Clear
7:20 PM 50.0 °F - 42.8 °F 76% 30.06 in - WSW 9.2 mph - N/A   Clear
7:50 PM 48.2 °F - 42.8 °F 82% 30.06 in - SW 6.9 mph - N/A   Clear
8:00 PM 49 °F - 44 °F 77% 30.08 in 6 mi SW 6.9 mph - -  
8:20 PM 50.0 °F - 46.4 °F 87% 30.06 in - WSW 9.2 mph - N/A   Clear
8:50 PM 48.2 °F - 46.4 °F 93% 30.09 in 3.7 mi West 6.9 mph - N/A   Unknown
9:20 PM 50.0 °F - 44.6 °F 82% 30.09 in 3.7 mi WNW 9.2 mph - N/A   Unknown
9:50 PM 50.0 °F - 46.4 °F 87% 30.12 in 3.7 mi West 6.9 mph - N/A   Unknown
10:20 PM 50.0 °F - 46.4 °F 87% 30.12 in 3.7 mi West 4.6 mph - N/A   Unknown
10:50 PM 48.2 °F - 44.6 °F 87% 30.12 in 3.7 mi West 3.5 mph - N/A   Unknown
11:00 PM 49 °F - 46 °F 83% 30.15 in 4 mi West 3.5 mph - -   Mist
11:20 PM 48.2 °F - 46.4 °F 93% 30.15 in 3.7 mi SW 4.6 mph - N/A   Unknown
11:50 PM 48.2 °F - 46.4 °F 93% 30.15 in 3.7 mi SSW 8.1 mph - N/A   Unknown